Weather History for Saginaw, MI

Change the Weather History Date:

Friday, February 8, 2013

  Actual Average Record
Temperature  
Mean Temperature 20 °F 23 °F  
Max Temperature 28 °F 30 °F 39 °F (1998)
Min Temperature 12 °F 16 °F 0 °F (2004)
Degree Days  
Heating Degree Days 45 42  
Month to date heating degree days 340  
Since 1 July heating degree days 4305  
Cooling Degree Days 0 0  
Month to date cooling degree days 0  
Year to date cooling degree days 0  
Moisture  
Dew Point 18 °F    
Average Humidity 78    
Maximum Humidity 93    
Minimum Humidity 58    
Precipitation  
Precipitation 0.02 in 0.05 in 0.35 in (2001)
Month to date precipitation 0.36  
Year to date precipitation 2.07  
Snow  
Snow 0.00 in 0.30 in - ()
Month to date snowfall 2.5  
Since 1 July snowfall 27.3  
Snow Depth -    
Sea Level Pressure  
Sea Level Pressure 30.10 in    
Wind  
Wind Speed 17 mph (North)    
Max Wind Speed 24 mph    
Max Gust Speed 31 mph    
Visibility 4 miles    
Events Snow    
T = Trace of Precipitation, MM = Missing Value Source: NWS Daily Summary

Daily Weather History Graph

Daily Weather History Graph

Search for Another Location

Airport:

Trip Planner

Search our weather history database for the weather conditions in past years. The results will help you decide how hot, cold, wet, or windy it might be!

Date:

Astronomy

Feb. 08, 2013 Rise Set
Actual Time 7:43 AM EST 5:57 PM EST
Civil Twilight 7:14 AM EST 6:27 PM EST
Nautical Twilight 6:40 AM EST 7:01 PM EST
Astronomical Twilight 6:06 AM EST 7:34 PM EST
Moon 6:13 AM EST (2/8) 4:29 PM EST (2/8)
Length of Visible Light 11h 13m
Length of Day
10h 13m
Waning Crescent, 3% of the Moon is Illuminated
Feb 8
Waning Crescent
Feb 10
New
Feb 17
First Quarter
Feb 25
Full
Mar 4
Last Quarter

Hourly Weather History & Observations

Time (EST) Temp. Windchill Dew Point Humidity Pressure Visibility Wind Dir Wind Speed Gust Speed Precip Events Conditions
12:39 AM 28.4 °F 18.5 °F 24.8 °F 86% 29.91 in 0.8 mi NE 11.5 mph - 0.01 in Snow Light Snow
12:53 AM 28.0 °F 17.5 °F 25.0 °F 88% 29.94 in 0.8 mi NE 12.7 mph - 0.01 in Snow Light Snow
1:53 AM 28.0 °F 15.7 °F 25.0 °F 88% 29.91 in 0.8 mi NE 17.3 mph - 0.01 in Snow Light Snow
2:53 AM 28.9 °F 16.1 °F 26.1 °F 89% 29.91 in 0.8 mi NNE 19.6 mph - 0.00 in Snow Light Snow
3:53 AM 28.9 °F 15.4 °F 26.1 °F 89% 29.91 in 0.8 mi NNE 21.9 mph - 0.00 in Snow Light Snow
5:35 AM 28.4 °F 14.1 °F 24.8 °F 86% 29.92 in 0.8 mi NNE 24.2 mph 29.9 mph 0.00 in Snow Light Snow
5:45 AM 28.4 °F 14.7 °F 24.8 °F 86% 29.93 in 0.8 mi NNE 21.9 mph - 0.00 in Snow Light Snow
5:53 AM 28.0 °F 13.9 °F 24.1 °F 85% 29.96 in 0.5 mi NNE 23.0 mph 29.9 mph 0.00 in Snow Light Snow
6:05 AM 28.4 °F 15.8 °F 24.8 °F 86% 29.94 in 0.5 mi NNE 18.4 mph - 0.00 in Snow Light Snow
6:43 AM 26.6 °F 13.1 °F 24.8 °F 93% 29.97 in 0.5 mi NNE 19.6 mph - 0.00 in Snow Light Snow
6:53 AM 27.0 °F 13.9 °F 23.0 °F 85% 30.00 in 0.5 mi North 18.4 mph - 0.00 in Snow Light Snow
7:02 AM 26.6 °F 13.4 °F 23.0 °F 86% 29.98 in 1.0 mi North 18.4 mph 28.8 mph 0.00 in Snow Light Snow
7:14 AM 24.8 °F 9.3 °F 21.2 °F 86% 29.99 in 0.8 mi North 24.2 mph 29.9 mph 0.00 in Snow Light Snow
7:21 AM 24.8 °F 9.3 °F 21.2 °F 86% 29.99 in 0.8 mi North 24.2 mph 29.9 mph 0.00 in   Overcast
7:28 AM 24.8 °F 10.3 °F 19.4 °F 80% 30.00 in 0.8 mi North 20.7 mph 31.1 mph 0.00 in Snow Light Snow
7:53 AM 24.1 °F 8.7 °F 19.9 °F 84% 30.04 in 0.8 mi North 23.0 mph 29.9 mph 0.00 in Snow Light Snow
8:25 AM 23.0 °F 8.7 °F 19.4 °F 86% 30.03 in 0.8 mi North 18.4 mph 28.8 mph 0.00 in Snow Light Snow
8:41 AM 23.0 °F 7.6 °F 17.6 °F 80% 30.05 in 1.8 mi North 21.9 mph - 0.00 in Snow Light Snow
8:53 AM 21.9 °F 6.5 °F 18.0 °F 85% 30.09 in 1.2 mi North 20.7 mph 27.6 mph 0.00 in Snow Light Snow
9:05 AM 21.2 °F 5.6 °F 17.6 °F 86% 30.06 in 1.2 mi North 20.7 mph 28.8 mph 0.00 in Snow Light Snow
9:20 AM 21.2 °F 5.2 °F 17.6 °F 86% 30.06 in 2.5 mi North 21.9 mph - 0.00 in Snow Light Snow
9:28 AM 21.2 °F 5.2 °F 15.8 °F 80% 30.07 in 4.0 mi North 21.9 mph 26.5 mph 0.00 in Snow Light Snow
9:53 AM 21.9 °F 6.5 °F 16.0 °F 78% 30.11 in 2.5 mi North 20.7 mph - 0.00 in Snow Light Snow
10:29 AM 23.0 °F 8.3 °F 15.8 °F 74% 30.09 in 2.5 mi North 19.6 mph - 0.00 in Snow Light Snow
10:39 AM 23.0 °F 8.7 °F 15.8 °F 74% 30.10 in 1.0 mi North 18.4 mph - 0.00 in Snow Light Snow
10:44 AM 23.0 °F 8.0 °F 15.8 °F 74% 30.10 in 5.0 mi North 20.7 mph 26.5 mph 0.00 in Snow Light Snow
10:53 AM 23.0 °F 8.7 °F 16.0 °F 74% 30.14 in 9.0 mi North 18.4 mph - 0.00 in Snow Light Snow
11:24 AM 24.8 °F 10.7 °F 15.8 °F 69% 30.13 in 8.0 mi North 19.6 mph - 0.00 in Snow Light Snow
11:53 AM 26.1 °F 12.7 °F 16.0 °F 66% 30.17 in 10.0 mi North 18.4 mph 25.3 mph 0.00 in   Mostly Cloudy
12:02 PM 26.6 °F 13.4 °F 15.8 °F 64% 30.14 in 10.0 mi North 18.4 mph 26.5 mph 0.00 in   Scattered Clouds
12:53 PM 27.0 °F 14.3 °F 18.0 °F 69% 30.17 in 10.0 mi North 17.3 mph - 0.00 in   Partly Cloudy
1:53 PM 28.0 °F 17.0 °F 18.0 °F 66% 30.19 in 10.0 mi North 13.8 mph - 0.00 in   Clear
2:53 PM 28.9 °F 17.3 °F 17.1 °F 61% 30.19 in 3.0 mi North 16.1 mph - 0.00 in   Haze
3:53 PM 28.9 °F 18.2 °F 16.0 °F 58% 30.22 in 10.0 mi North 13.8 mph - 0.00 in   Clear
4:53 PM 28.0 °F 17.5 °F 15.1 °F 58% 30.25 in 10.0 mi North 12.7 mph - N/A   Clear
5:53 PM 24.1 °F 15.2 °F 12.9 °F 62% 30.29 in 10.0 mi North 8.1 mph - N/A   Clear
6:53 PM 21.9 °F 11.7 °F 12.0 °F 66% 30.31 in 10.0 mi North 9.2 mph - N/A   Clear
7:53 PM 19.9 °F 9.3 °F 10.9 °F 68% 30.33 in 10.0 mi North 9.2 mph - N/A   Clear
8:53 PM 16.0 °F 5.3 °F 9.0 °F 74% 30.36 in 10.0 mi NNE 8.1 mph - N/A   Clear
9:53 PM 12.9 °F 5.2 °F 9.0 °F 84% 30.39 in 10.0 mi NNE 4.6 mph - N/A   Clear
10:53 PM 12.9 °F 3.8 °F 9.0 °F 84% 30.39 in 10.0 mi North 5.8 mph - N/A   Clear
11:53 PM 14.0 °F 2.9 °F 9.0 °F 80% 30.39 in 10.0 mi NNW 8.1 mph - N/A   Clear